www.pogodaiklimat.ru

Погода и климат >> Архив погоды >> Греция >> Кастория


ПОГОДА в Кастории

  • Прогноз погоды в Кастории
  • Монитор погоды в Кастории

АРХИВ ПОГОДЫ в Кастории

Время (UTC), дата Ветер
(напр.,м/с)
 
Видим.   Явления Облачность Т
(С)
Тd
(С)
f
(%)
Тe
(С)
Тes
(С)
Комфортность P
(гПа)
Po
(гПа)
Тmin
(С)
Tmax
(С)
R
(мм)
R24
(мм)
S
(см)
12 11.09 Ю 3
{5}
20 км 9/3 900 м
[Cu med, cong Ac trans Cs]
+26.6 +8.0 31 +27 +31 жарко 1016.3 943.1
15 11.09 нст 1
{5}
н/о н/о +26.5 +7.6 30 +26 +26 жарко 1015.6 942.5
18 11.09 штиль 0
{5}
20 км в посл. час дождь 9/4 900 м
[Sc Ac trans Cs]
+22.2 +10.9 49 +24 +24 комфорт 1018.7 944.4 +27.6 0.0
21 11.09 СЗ 3
{5}
н/о в посл. час осадки н/о +18.6 +14.2 76 +20 +20 1021.6 946.2
00 12.09 нст 2
{5}
н/о {осадки} н/о +17.9 +13.9 77 +19 +19 1021.6 946.0 0.1
03 12.09
{3}
н/о н/о +16.3 +13.0 81 1021.9 945.9
06 12.09 штиль 0
{3}
10 км 4/1 750 м
[Cu med, cong Ac lent]
+16.8 +12.6 76 +17 +19 1023.0 947.0 +14.8 0.1
09 12.09 штиль 0
{4}
10 км 3/3 600 м
[Cu med, cong Ac lent]
+24.6 +8.1 35 +25 +36 комфорт 1021.2 947.2
12 12.09 ЮВ 3
{6}
10 км 4/3 750 м
[Cu med, cong Ac lent]
+27.6 +7.7 28 +27 +34 жарко 1019.0 945.9
15 12.09 С 5
{8}
н/о н/о +25.5 +4.4 26 +25 +25 комфорт 1018.9 945.4
18 12.09 СВ 5
{7}
20 км 5/4 600 м
[Sc diur, vesp Ac trans Ci sp]
+22.4 +4.7 32 +23 +23 комфорт 1021.5 947.1 +27.9
21 12.09 СВ 2
{7}
н/о н/о +20.7 +3.7 33 +22 +22 комфорт 1023.2 948.2
00 13.09 С 4
{8}
н/о н/о +19.5 +3.0 33 +20 +20 1022.9 947.7
03 13.09
{8}
н/о н/о +15.6 +4.1 46 1024.0 947.7
06 13.09 С 6
{11}
20 км ясно +19.2 +3.9 36 +19 +20 1024.0 948.6 +15.0
09 13.09 С 8
{13}
20 км 1/1 600 м
[Cu hum]
+23.4 +4.0 28 +23 +25 комфорт 1023.2 948.8
12 13.09 С 6
{10}
н/о н/о +25.4 +1.2 21 +24 +24 комфорт 1021.0 947.3
15 13.09 СВ 6
{10}
н/о н/о +25.9 +2.1 21 +24 +24 комфорт 1020.6 947.0
18 13.09 штиль 0
{9}
20 км ясно +21.0 +3.8 32 +21 +21 комфорт 1022.9 947.9 +26.5
21 13.09 С 4
{6}
н/о н/о +17.1 +4.5 43 +17 +17 1025.3 949.3
00 14.09 нст 1
{5}
н/о н/о +15.3 +5.3 51 +17 +17 1026.3 949.7
03 14.09 СЗ 3
{5}
н/о н/о +12.7 +5.5 62 +11 +11 1026.5 949.2
06 14.09 З 2
{5}
10 км ясно +16.6 +5.1 47 +17 +19 1026.4 950.1 +11.7
09 14.09 СВ 5
{7}
20 км ясно +23.8 +1.8 24 +23 +30 комфорт 1024.0 949.5
12 14.09 С 4
{7}
20 км ясно +26.2 -1.3 16 +24 +33 комфорт 1021.2 947.7
15 14.09
{9}
н/о н/о +26.4 0.0 18 1019.8 946.5
18 14.09 С 2
{6}
н/о н/о +20.2 +1.8 29 +21 +21 комфорт 1022.3 947.3 +27.2
21 14.09 З 2
{5}
н/о н/о +17.4 +3.5 40 +18 +18 1024.2 948.4
00 15.09 С 2
{5}
н/о н/о +15.4 +4.8 49 +16 +16 1025.0 948.5
03 15.09 СЗ 3
{4}
н/о н/о +13.3 +5.9 61 +12 +12 1026.1 949.0
06 15.09 нст 2
{5}
н/о н/о +15.7 +7.3 57 +16 +16 1026.5 950.0 +12.7
09 15.09 штиль 0
{4}
10 км ясно +24.6 +5.0 28 +24 +39 комфорт 1023.9 949.8
12 15.09 штиль 0
{5}
10 км 1/1 1500 м
[Cu hum]
+27.6 +3.6 21 +26 +40 жарко 1020.9 947.7
15 15.09
{8}
н/о н/о +27.1 +2.8 21 1019.3 946.1
18 15.09 штиль 0
{5}
20 км ясно +21.0 +5.7 37 +22 +22 комфорт 1021.7 946.9 +28.1
21 15.09 СЗ 1
{4}
н/о н/о +16.2 +6.9 54 +17 +17 1023.3 947.2
00 16.09 нст 1
{4}
н/о н/о +11.3 +6.4 72 +12 +12 1024.2 946.7
03 16.09
{3}
н/о н/о +11.1 +6.4 73 1023.3 945.9
06 16.09 штиль 0
{3}
20 км ясно +12.8 +6.9 67 +12 +15 1022.4 945.4 +8.9
09 16.09 штиль 0
{4}
10 км ясно +23.8 +6.5 33 +24 +39 комфорт 1018.3 944.3
12 16.09 В 2
{5}
10 км ясно +29.0 +2.3 18 +27 +38 жарко 1014.4 942.0
15 16.09
{12}
н/о н/о +29.6 +0.3 15 1012.3 940.2
18 16.09 З 3
{5}
20 км ясно +23.4 +5.7 32 +24 +24 комфорт 1014.8 941.1 +30.9
21 16.09
{6}
н/о н/о +17.5 +7.5 52 1017.6 942.2
00 17.09 нст 1
{4}
н/о н/о +13.9 +7.9 67 +14 +14 1018.6 942.2
03 17.09
{4}
н/о н/о +12.2 +7.0 71 1018.5 941.7
06 17.09 СЗ 2
{3}
20 км ясно +14.6 +7.8 64 +14 +16 1018.5 942.3 +10.6
09 17.09 штиль 0
{4}
20 км 1/0
[Ci fib]
+26.4 +6.8 29 +26 +41 жарко 1014.8 941.7
12 17.09 СВ 3
{6}
20 км ясно +29.6 +2.6 18 +27 +38 жарко 1011.9 939.8
15 17.09
{6}
н/о н/о +30.6 +2.7 17 1010.1 938.4
18 17.09 СЗ 4
{7}
20 км ясно +24.0 +6.7 33 +24 +24 комфорт 1013.0 939.5 +31.7
21 17.09 СЗ 2
{4}
н/о н/о +19.3 +7.8 47 +21 +21 комфорт 1015.2 940.4
00 18.09 СЗ 2
{3}
н/о н/о +15.5 +8.1 61 +15 +15 1016.2 940.4
03 18.09
{3}
н/о н/о +12.6 +7.0 69 1016.7 940.1
06 18.09 СЗ 3
{4}
20 км ясно +15.4 +6.9 57 +15 +16 1016.7 940.8 +11.8

 

Местоположение метеостанции Кастория (Греция): широта 40.45 долгота 21.28 высота над уровнем моря 604 м.

В архиве по умолчанию представлена погода в Кастории за последнюю неделю. Архивные данные за месяц целиком и за предыдущие месяцы, начиная с января 2011 года, Вы можете получить, выбрав интересующий диапазон дат из раскрывающегося списка и нажав кнопку "Ввод!".


*Определитесь, кто Вы:
робот инопланетянин человек

Внимание! Время в таблицах - всемирное. Для получения местного времени необходимо прибавить поправку, которая равна 2 ч.

Смотрите также архив погоды в соседних городах и на ближайших метеорологических станциях:

Погода во Флорине (Греция) (38 км)
Погода в Козани (Греция) (46 км)
Погода в Корке (Албания) (46 км)
Погода в Преторе (Македония) (48 км)
Погода в Конице (Греция) (64 км)
Погода в Битоле (Македония) (67 км)
Погода в Охриде (Македония) (82 км)
Погода в Охрид аэропорту (Македония) (85 км)
Погода в Тополчани (Македония) (87 км)
Погода в Янине (Греция) (92 км)

Пояснения к столбцам:

Ветер - указаны скорость ветра в м/с - средняя за 10 мин, порывы в срок и между сроками (в фигурных скобках) и направление, откуда дует ветер: С - северный, СВ - северо-восточный, В - восточный, ЮВ - юго-восточный, Ю - южный, ЮЗ - юго-западный, З - западный, СЗ - северо-западный.
Видимость - горизонтальная дальность видимости в метрах или километрах. При видимости от 1 до 10 км при отсутствии осадков обычно наблюдается дымка, при ухудшении видимости до 1 км и менее - туман. В сухую погоду видимость может ухудшаться дымом, пылью или мглою.
Явления - указаны атмосферные явления, наблюдавшиеся в срок или в последний час перед сроком; фигурными скобками обозначены явления, наблюдавшиеся между сроками (за 1-3 часа до срока); квадратными скобками обозначены град или гололедные отложения с указанием их диаметра в мм.
Облачность - указаны через наклонную черту общая и нижняя облачность в баллах и высота нижней границы облаков в метрах; квадратными скобками обозначены формы облаков: Ci - перистые, Cs - перисто-слоистые, Cc - перисто-кучевые, Ac - высококучевые, As - высокослоистые, Sc - слоисто-кучевые, Ns - слоисто-дождевые, Cu - кучевые, Cb - кучево-дождевые. Подробнее классификацию облаков см. в Атласе облаков (PDF).
T - Температура воздуха - температура, измеренная на высоте 2 м над землей.
Td - Температура точки росы - температура, при понижении до которой содержащийся в воздухе водяной пар достигнет насыщения.
f - Относительная влажность воздуха - влажноcть воздуха, измеренная на высоте 2 м над землей.
Te - Эффективная температура - температура, которую ощущает одетый по сезону человек в тени. Характеристика душности погоды. При расчете учитывается влияние влажности воздуха и скорости ветра на теплоощущения человека.
Tes - Эффективная температура на солнце - температура, которую ощущает человек, с поправкой на солнечный нагрев. Характеристика знойности погоды. Зависит от высоты солнца над горизонтом, облачности и скорости ветра. Ночью, в пасмурную погоду, а также при ветре 12 м/с и более поправка равна нулю.
P - Атмосферное давление - приведенное к уровню моря атмосферное давление.
Po - Атмосферное давление - измеренное на уровне метеостанции атмосферное давление.
Tmin - Минимальная температура - минимум температуры воздуха на высоте 2 м над землей.
Tmax - Максимальная температура - максимум температуры воздуха на высоте 2 м над землей.
R - Количество осадков - Количество выпавших осадков за период времени, мм. При наведении курсора мыши на число - период времени, за который выпало указанное количество осадков.
R24 - Количество осадков - Количество выпавших осадков за 24 часа, мм.
S - Снежный покров - Высота снежного покрова, см. При наведении курсора мыши на число - состояние снежного покрова и степень покрытия местности в баллах.